Dewpoint
64 60 56 58 54 56 54 52 39 43 39 30 29 24 24 34 32 29 27 17 24 21 26 29 32 34 32 35 31 33 37 39 45 39 38 50 52 54 56 57 58 58 59 60 61 60 61 63 63 63 63 64 63 65 65 66 66 66 66 66 67 67 67 67 68 68 68 68 68 69 68 68 68 68 68 69 69 69 69 69 68 69 69 69 69 70 69 69 69 69 68 69 68 69 70 70 70
62 57 54 56 56 57 50 48 42 36 34 25 23 23 28 29 26 24 21 24 29 26 34 27 28 32 35 33 31 29 38 39 41 44 47 49 51 52 55 56 58 56 58 58 58 59 60 61 63 62 63 63 64 64 64 65 65 66 65 66 66 67 67 67 67 67 67 67 68 67 67 67 67 67 67 67 67 68 68 68 68 68 68 68 69 69 69 70 69 69 69 69 69 70 70 70 70
59 55 54 54 54 54 50 47 38 33 32 25 25 29 30 21 21 24 23 21 29 28 29 29 30 31 32 34 30 30 33 41 41 42 43 48 47 48 54 57 57 58 58 57 58 58 59 61 63 63 63 63 63 63 63 64 65 65 65 65 65 65 65 65 66 66 66 66 66 66 65 65 65 65 66 66 66 67 66 66 66 66 66 67 67 68 69 69 69 70 70 70 70 70 70 70 70
58 59 56 56 53 50 46 41 39 32 27 23 27 28 28 24 24 31 31 32 32 28 30 37 29 33 32 29 28 29 34 39 42 43 43 45 49 50 52 54 55 54 56 57 58 58 59 61 62 62 62 62 62 62 62 63 64 64 64 64 64 64 64 64 65 65 64 65 65 64 64 64 64 64 64 64 64 64 64 64 64 64 65 65 66 67 68 68 68 68 68 68 68 67 67 68 69
58 59 57 54 54 49 44 42 37 35 29 24 23 26 23 25 29 30 30 31 29 29 27 28 30 34 32 33 33 35 41 42 41 45 44 49 50 49 51 55 53 52 53 54 56 57 58 62 61 61 61 61 61 61 61 61 62 62 62 62 62 62 62 63 63 63 63 63 63 62 62 62 62 62 62 62 63 62 62 62 63 62 63 63 64 65 66 67 67 67 67 66 66 65 65 65 66
55 55 59 55 50 47 44 36 33 29 27 21 20 23 20 21 25 29 28 28 28 28 28 26 28 29 30 31 33 34 42 42 42 44 45 44 49 50 51 53 48 48 51 54 56 56 58 61 60 60 60 60 60 60 59 60 60 60 60 60 59 59 60 60 60 60 61 61 61 60 60 60 60 60 60 60 61 61 60 60 61 61 61 61 62 62 64 65 65 65 65 64 64 64 63 63 63
56 52 50 52 50 45 39 33 28 25 27 25 25 21 23 22 28 28 27 27 30 28 29 29 28 29 26 32 32 38 42 46 40 49 48 47 48 49 49 45 47 48 51 54 55 56 58 59 58 59 59 58 59 58 58 59 59 60 59 58 58 58 58 58 58 58 58 58 58 58 58 57 57 58 58 58 58 58 58 58 58 58 58 58 59 59 60 61 62 62 62 62 62 61 60 60 60
55 54 48 43 42 36 33 26 23 20 27 24 21 25 21 22 27 26 25 23 25 25 27 29 29 30 28 31 29 39 43 45 47 47 45 43 47 48 48 42 44 46 49 53 54 55 58 58 58 57 57 57 57 58 58 58 58 58 58 57 57 56 56 56 57 57 57 56 56 56 56 55 55 55 56 56 55 55 55 55 55 55 55 55 55 55 55 56 57 58 58 59 59 59 59 58 58
51 50 52 45 39 41 33 28 25 21 30 25 25 38 37 24 25 23 24 24 26 24 25 26 28 23 27 29 31 40 39 45 42 45 42 44 45 45 41 42 41 46 49 51 53 54 55 56 57 57 57 57 57 57 57 57 57 57 57 56 55 55 55 55 55 56 55 55 55 55 54 54 54 54 54 54 54 54 54 54 54 55 54 54 54 54 54 54 54 55 55 55 56 56 56 56 56
47 46 42 39 39 32 32 30 25 25 28 27 25 20 22 23 23 22 23 20 26 24 26 26 26 24 27 25 35 38 38 41 42 43 41 43 42 41 38 44 45 47 48 50 51 52 53 56 56 56 56 56 56 56 56 56 56 56 56 55 55 55 54 54 54 55 55 54 54 54 54 53 53 53 54 53 54 54 55 55 55 55 55 55 55 55 55 54 54 55 56 55 55 54 55 54 54
42 45 45 40 37 31 28 22 28 32 28 27 21 20 21 22 22 21 22 20 24 23 26 26 25 25 24 23 34 45 39 37 38 38 40 41 41 36 32 41 43 45 45 49 49 50 50 52 55 54 54 55 55 55 55 55 54 54 54 54 54 54 54 53 53 53 53 53 53 53 52 52 52 52 52 52 53 53 53 54 53 53 53 53 53 53 54 55 54 55 55 54 54 55 54 54 54
41 42 44 36 29 29 26 27 25 27 26 26 23 20 21 23 26 22 20 20 22 24 26 28 27 26 24 24 39 41 36 36 39 39 40 41 35 38 36 35 43 44 46 46 47 47 47 49 49 53 53 53 53 53 53 53 53 53 53 53 54 54 52 52 51 51 50 51 50 51 51 50 50 50 50 49 51 51 51 52 51 51 50 50 51 51 52 52 53 54 54 54 54 54 54 54 54
43 44 38 35 31 27 27 27 26 26 27 26 23 20 22 22 21 21 21 20 22 22 26 25 27 26 28 26 39 38 35 36 37 39 38 34 36 37 38 34 41 42 43 42 41 43 46 44 46 48 51 52 52 51 51 51 51 51 51 51 51 51 51 51 50 49 48 48 47 48 48 48 48 48 48 47 46 47 49 51 51 50 50 49 50 51 51 51 51 52 52 52 52 53 53 53 53
43 44 39 36 34 28 27 28 26 23 23 23 21 21 23 22 21 26 22 20 19 22 26 27 26 27 24 29 35 37 35 36 34 37 35 35 34 33 38 36 42 39 42 41 38 39 38 39 42 45 46 45 47 49 50 50 50 50 49 49 49 49 48 49 47 46 46 45 45 44 44 44 45 46 46 47 45 45 46 48 50 50 48 49 50 51 52 51 51 51 52 52 51 52 52 52 52
43 42 36 36 26 25 24 23 26 27 25 26 23 22 23 23 24 26 21 21 21 27 28 27 32 23 20 22 31 35 35 35 35 36 38 36 36 33 39 39 41 41 37 35 35 34 33 34 35 41 43 41 42 43 45 47 48 48 48 48 47 46 46 45 45 45 44 42 42 43 44 43 43 42 43 43 43 43 42 43 46 47 47 47 48 49 49 50 50 50 51 51 50 51 51 51 51
46 42 37 35 26 27 26 28 28 27 24 23 24 23 22 22 24 24 26 24 34 34 28 26 28 23 26 29 39 33 35 34 35 36 35 35 38 39 38 37 33 35 36 33 33 35 33 35 36 38 40 40 41 38 41 43 47 46 46 46 46 45 44 42 41 41 41 40 39 42 45 47 45 44 43 42 41 41 41 42 43 44 44 45 45 47 47 47 46 48 49 49 49 49 49 50 51
45 43 35 32 26 25 26 29 26 25 26 26 21 21 19 19 24 25 22 23 23 27 29 26 26 28 25 29 38 35 33 35 37 33 34 32 33 33 35 33 31 32 38 34 32 33 34 34 35 36 36 37 40 37 36 39 44 44 44 44 43 42 42 41 40 43 46 44 45 45 47 39 40 39 38 39 46 44 46 43 42 42 43 44 43 46 45 45 46 47 46 46 46 47 48 50 52
45 38 31 27 26 24 29 29 26 28 24 21 19 20 19 17 22 24 24 22 22 22 25 26 25 26 28 29 35 35 32 32 32 31 32 32 32 31 31 30 28 28 32 31 32 31 32 34 34 34 36 38 39 42 41 41 43 43 39 41 42 42 43 45 41 41 46 41 42 40 37 36 36 34 36 41 39 43 43 45 44 38 41 40 41 42 42 43 45 45 45 45 44 42 46 45 44
40 34 31 26 28 28 24 21 19 17 21 21 20 20 20 20 21 22 20 19 20 20 20 22 23 24 25 27 34 32 31 31 31 30 32 33 31 30 30 30 25 26 30 30 30 29 31 32 33 32 36 37 39 40 42 40 37 39 39 36 39 43 42 42 41 41 41 41 40 37 36 36 38 36 36 39 41 45 41 45 41 37 38 38 38 39 39 41 41 41 42 42 42 44 38 38 38
33 34 29 28 31 27 25 23 21 21 20 18 20 20 19 19 20 21 21 19 19 19 19 20 21 22 24 26 32 30 29 30 31 30 31 32 30 28 27 29 24 24 28 28 28 33 30 31 33 33 35 36 36 38 41 36 35 35 35 37 37 37 39 40 40 41 41 40 40 34 36 37 37 33 45 43 42 36 36 41 42 41 39 41 36 39 40 41 39 41 40 40 44 40 37 38 38
33 28 26 28 25 26 23 19 20 19 21 20 19 20 21 21 20 20 20 18 18 18 19 19 19 21 23 25 31 30 29 29 31 31 31 31 31 29 25 25 24 24 28 28 30 29 28 31 31 33 35 35 35 35 36 33 34 34 35 37 36 36 38 37 37 39 39 39 38 34 37 37 38 35 36 36 34 34 33 32 32 31 31 33 39 31 31 34 33 34 33 37 34 35 37 38 38
39 28 27 25 22 24 22 20 25 21 23 22 20 19 19 22 20 19 19 18 18 18 19 19 19 20 21 25 28 31 28 30 29 30 30 30 31 28 25 26 25 25 27 26 27 26 28 29 30 33 33 33 35 33 34 35 35 34 34 35 34 34 39 37 36 37 38 38 36 37 36 35 34 34 36 35 35 32 32 31 31 31 31 32 31 28 31 31 30 30 31 31 31 32 33 35 36
25 25 25 25 22 19 22 21 28 22 21 20 23 19 19 19 20 20 19 19 19 20 25 23 22 24 21 25 28 31 29 29 28 30 29 29 30 29 25 23 23 24 27 25 26 23 25 26 29 31 32 33 35 31 33 32 33 34 34 34 35 33 36 35 35 34 35 36 37 34 37 33 33 33 34 35 32 31 31 30 31 30 29 29 28 27 30 29 28 29 30 31 31 32 32 34 34
24 22 21 21 21 19 21 20 25 22 21 18 19 22 21 20 18 20 19 20 20 20 20 22 22 22 24 25 26 29 29 29 29 28 29 28 29 30 28 23 22 24 26 25 25 23 27 25 29 30 30 32 33 32 29 27 32 33 35 36 35 36 35 34 35 34 36 34 36 35 34 31 32 32 33 32 32 32 32 31 31 29 29 29 27 28 28 28 27 28 29 31 30 31 31 31 32
25 22 22 22 25 22 24 20 21 21 20 20 22 21 19 20 19 20 18 19 20 20 21 20 21 22 23 24 25 29 30 30 29 29 30 28 30 31 33 29 24 26 25 26 25 23 25 27 27 27 29 30 31 31 25 26 30 32 29 31 32 34 34 34 32 34 33 33 35 34 36 33 31 31 32 31 32 32 31 30 30 28 30 28 27 28 28 27 27 28 29 30 30 30 30 30 32
22 21 22 20 20 21 20 19 20 21 21 21 21 20 20 20 21 19 19 20 20 21 21 20 21 23 21 23 24 26 28 30 31 30 28 31 31 30 32 29 25 22 25 25 26 23 23 25 25 24 27 29 30 28 27 28 30 30 27 30 28 33 33 32 32 33 31 32 33 34 33 32 30 31 31 30 31 31 30 29 29 28 29 28 27 27 29 29 29 29 30 30 31 31 30 31 32
22 21 20 19 19 19 19 18 18 19 20 21 20 19 19 20 21 18 20 21 21 21 21 21 21 20 20 20 23 25 27 29 29 30 31 31 31 30 31 32 28 23 25 25 26 24 25 23 26 23 25 31 29 27 27 26 29 29 30 30 25 30 32 31 32 31 32 31 33 35 33 31 32 31 32 30 29 29 29 28 29 29 29 28 26 27 30 31 30 30 30 31 30 29 30 31 30
21 20 19 19 19 19 19 19 19 19 19 20 20 19 20 19 26 18 19 21 22 21 21 21 22 21 20 20 20 26 25 29 29 31 30 29 30 29 29 30 29 26 26 26 25 24 24 23 25 21 24 28 27 25 30 27 27 29 30 28 26 31 31 30 31 31 33 33 35 35 33 31 32 32 32 32 29 30 29 29 30 29 28 27 27 29 30 30 30 29 30 31 30 29 29 27 28
20 19 17 18 17 16 16 17 18 20 19 20 21 19 18 18 19 20 20 20 20 19 20 20 21 21 23 22 21 22 23 24 28 29 30 28 29 29 28 30 30 28 26 27 26 27 23 22 22 19 22 28 24 24 28 27 28 30 29 28 30 34 30 31 29 30 30 33 34 34 32 31 30 32 32 31 30 30 29 30 29 29 28 27 28 30 31 30 27 27 28 30 27 27 27 28 32
21 19 18 18 17 16 17 17 16 19 19 20 18 14 13 14 18 18 19 20 20 19 19 19 21 21 21 22 21 22 22 24 25 28 28 29 28 29 29 29 30 29 26 27 26 25 24 26 26 23 23 26 24 24 26 26 28 27 28 29 32 30 30 29 30 29 30 31 32 34 33 30 31 30 31 31 29 28 29 28 28 28 28 28 28 29 28 28 27 28 28 26 29 28 26 27 27
19 19 19 19 19 17 18 16 16 18 21 19 18 15 10 10 10 18 19 19 19 18 18 19 20 21 21 22 22 22 22 23 23 25 29 30 28 29 29 29 30 29 27 26 26 25 25 25 25 18 28 25 26 27 27 26 28 27 27 28 29 30 28 28 28 28 28 29 30 32 32 32 31 32 31 30 29 28 27 27 28 27 28 29 27 28 28 28 28 28 28 26 27 27 27 27 27
19 18 19 23 19 19 18 21 17 16 20 19 17 19 13 12 11 11 18 19 18 18 18 18 19 19 20 20 21 21 23 22 25 25 28 28 28 27 29 29 29 28 26 26 27 26 23 22 24 22 27 26 25 28 27 28 27 26 27 32 27 31 28 27 27 27 27 27 29 30 32 31 32 31 31 30 30 28 27 27 26 28 30 28 29 28 29 28 27 29 29 27 26 26 28 26 26
20 18 22 22 23 21 18 19 18 17 19 19 17 14 12 11 14 17 19 19 18 18 17 17 18 18 18 18 19 20 22 22 25 25 26 29 29 27 28 28 28 28 26 26 26 25 23 22 24 23 25 25 24 26 28 26 25 25 25 26 27 31 27 27 27 27 26 25 27 29 31 30 31 31 31 30 28 28 28 27 28 29 29 27 27 27 27 29 26 29 27 30 28 26 26 25 25
24 23 19 25 22 20 18 20 20 24 18 17 18 15 13 11 10 11 21 19 18 17 17 16 15 15 15 17 18 20 21 21 21 24 25 29 29 28 26 31 28 27 26 26 27 24 21 23 23 23 25 24 24 26 27 26 26 26 26 28 30 28 28 27 26 26 25 26 26 29 30 29 31 31 29 30 29 28 27 27 28 27 27 27 27 26 26 28 27 27 27 28 29 27 26 26 26
23 20 19 16 19 19 19 18 17 19 18 16 17 17 16 15 15 13 13 13 17 17 17 16 15 15 16 16 16 16 21 22 22 23 26 27 30 29 26 28 27 27 25 25 26 23 23 24 26 26 25 23 25 27 28 26 26 26 27 28 26 28 27 26 26 25 27 25 26 30 30 28 31 30 31 30 28 27 27 27 27 28 27 27 26 26 26 27 28 27 28 27 27 27 27 26 26
16 15 15 18 22 20 17 16 21 19 19 17 16 15 15 16 16 16 15 14 14 14 14 15 15 16 16 16 17 18 20 20 23 25 29 28 30 30 26 27 28 26 24 24 26 24 25 25 25 25 26 23 26 27 26 25 25 26 25 26 27 28 25 26 24 24 25 24 30 28 28 28 29 29 29 29 27 27 27 26 26 26 26 26 26 26 26 25 26 26 26 27 26 26 27 26 26
17 22 24 19 20 18 17 16 16 19 17 17 16 15 14 14 14 14 14 13 14 14 14 14 15 15 15 15 17 19 19 19 31 30 30 29 31 30 28 27 27 25 23 24 23 24 25 23 25 24 25 23 25 25 24 23 23 24 25 24 24 25 23 24 25 25 23 25 28 28 29 28 29 28 28 28 26 28 26 25 25 26 26 26 26 26 26 27 27 28 27 27 27 26 26 27 26
18 21 23 20 24 18 17 16 16 16 16 15 15 15 16 15 14 14 14 13 13 13 13 13 13 13 14 16 17 19 21 37 35 32 30 31 30 32 28 26 27 23 22 23 23 24 24 22 23 23 24 23 23 24 24 23 23 22 23 22 23 22 24 23 22 23 23 30 27 28 27 28 29 28 28 27 26 26 25 25 25 25 26 25 26 26 26 30 27 26 27 26 28 27 24 24 25
24 22 22 22 19 21 19 19 15 15 19 14 15 14 14 15 15 15 14 14 14 14 14 14 14 15 16 18 19 21 30 32 28 27 31 29 32 31 26 26 25 22 22 22 22 23 23 22 23 23 22 22 23 24 24 22 22 23 23 23 21 22 24 23 23 24 26 26 26 27 27 28 28 27 26 27 26 26 25 24 23 24 24 25 24 24 25 26 26 26 27 27 26 26 26 27 25
22 21 23 19 21 22 17 20 17 14 14 18 18 17 17 18 18 17 17 17 16 18 17 19 20 18 19 18 18 24 29 29 26 26 27 27 29 27 25 25 24 24 23 21 22 22 22 23 22 22 21 22 22 24 25 22 21 23 24 22 24 22 22 27 25 25 25 25 25 27 26 26 26 26 27 27 26 25 25 24 24 23 24 24 25 24 24 25 25 25 25 27 27 24 24 23 25
24 25 22 19 22 22 21 16 20 19 16 19 17 19 18 18 17 18 18 19 18 17 17 18 21 26 26 29 30 33 30 29 27 27 26 26 26 25 23 25 25 23 23 21 23 21 21 21 23 22 21 21 21 25 23 22 26 27 27 26 25 24 24 23 23 23 23 24 25 25 24 26 26 26 26 25 26 25 26 25 24 23 24 25 25 24 23 23 24 24 25 26 25 24 23 24 24
18 28 25 21 19 17 20 23 27 24 22 28 28 15 11 16 19 19 18 19 18 18 17 17 18 19 22 25 27 31 36 31 27 26 25 26 25 24 23 24 24 23 22 21 23 22 22 22 23 22 21 20 20 22 21 25 26 24 23 22 21 20 20 21 20 20 22 23 22 24 25 26 26 25 25 25 25 26 25 25 25 24 24 25 27 25 24 24 24 24 25 24 24 26 25 24 22
19 18 29 24 22 25 27 29 26 22 19 25 27 16 14 15 13 14 17 19 18 18 20 19 19 20 21 23 25 30 33 31 30 27 26 26 26 24 23 23 23 23 22 22 23 21 21 22 22 21 19 19 21 21 22 27 25 24 22 20 20 18 18 19 19 20 21 22 22 23 24 25 25 24 24 24 24 25 24 25 25 25 24 24 26 25 24 23 24 24 26 25 25 29 26 23 22
18 31 35 28 27 28 30 30 27 23 26 28 27 24 16 14 12 16 14 12 15 16 18 21 20 19 19 19 22 32 32 31 31 28 26 25 26 24 22 23 23 23 23 22 22 22 21 21 22 21 20 20 20 21 24 25 23 23 22 20 20 17 16 17 16 18 21 22 21 22 22 23 24 24 24 24 24 25 24 25 25 25 26 25 25 24 24 24 26 26 25 26 26 25 25 23 22
25 28 31 31 29 28 28 27 25 24 21 20 23 27 17 14 14 14 14 14 13 13 13 15 17 18 17 16 17 32 32 30 31 29 26 25 25 25 24 23 23 23 23 22 22 22 21 21 22 21 20 19 21 22 25 24 23 22 21 19 18 17 16 19 19 23 21 21 20 20 19 21 22 23 23 23 24 24 25 24 24 24 24 24 24 25 23 24 24 24 24 24 24 24 24 25 24
33 31 32 31 30 28 27 22 22 22 18 17 22 22 14 12 12 17 17 15 14 14 13 12 13 15 15 17 15 22 32 31 31 28 26 25 25 25 24 23 23 23 24 26 23 23 22 21 21 21 20 19 22 22 24 23 21 22 19 18 16 18 20 21 19 19 19 19 19 19 19 19 21 22 22 23 23 24 23 23 24 23 23 24 25 23 23 24 24 24 24 23 24 24 25 24 23
33 32 30 27 27 24 22 23 21 20 17 17 22 24 16 11 19 18 19 21 16 13 11 10 12 15 13 15 18 27 32 32 31 29 27 25 24 25 24 23 23 23 24 24 24 23 23 22 20 20 20 20 23 22 23 22 20 21 18 18 17 19 21 20 19 19 19 19 19 19 18 19 19 20 21 22 23 23 23 24 23 23 22 24 24 23 22 22 22 22 23 23 24 24 24 24 24
33 24 23 23 24 20 19 19 21 15 13 15 18 22 21 15 16 21 15 17 14 12 10 8 10 11 14 16 21 30 31 32 32 30 27 26 24 24 23 22 22 22 24 24 24 23 23 22 21 20 20 20 23 22 22 21 20 20 19 19 19 21 20 21 18 18 18 18 19 19 19 19 18 20 19 20 21 22 22 22 23 22 22 22 21 21 21 21 22 21 21 21 22 22 23 24 23
30 23 20 16 18 19 19 20 15 18 13 19 20 22 22 16 10 12 14 12 14 12 10 10 11 13 15 17 26 32 32 33 31 30 28 26 24 23 21 21 21 21 23 23 23 23 22 22 20 20 20 21 23 22 22 20 20 19 20 20 20 21 20 19 18 19 18 18 18 18 18 17 18 18 18 17 19 20 21 20 21 20 20 21 21 22 22 21 21 21 21 22 22 22 22 21 21
25 20 21 20 15 14 12 16 20 19 20 20 17 25 15 14 15 18 16 13 10 12 12 15 16 15 15 17 32 34 33 32 31 30 29 27 25 23 22 21 20 21 21 23 23 23 22 22 20 20 20 21 22 22 21 20 19 20 20 21 21 21 19 19 18 18 19 18 19 17 16 16 16 16 17 17 19 20 20 20 21 19 20 19 20 19 20 20 21 21 21 21 21 21 21 21 21
21 24 20 21 19 10 8 12 11 13 15 17 21 19 23 11 12 18 16 16 16 15 13 15 18 20 18 29 37 34 33 32 32 30 30 28 26 24 23 21 20 21 21 22 23 23 22 21 22 21 20 21 22 22 21 19 19 19 20 21 21 22 21 21 20 21 19 19 18 17 17 16 16 16 17 18 19 18 18 18 18 18 19 20 20 20 23 21 22 22 22 22 22 22 21 22 21
23 25 23 20 21 17 15 15 15 13 17 16 18 17 14 10 12 19 16 15 15 16 15 16 17 19 19 30 35 34 33 32 32 30 30 29 27 25 24 22 21 21 21 22 22 23 22 22 21 21 20 20 21 21 21 19 19 19 19 20 20 22 23 22 22 22 19 18 17 17 16 16 16 16 17 17 18 18 18 18 19 19 20 20 20 20 20 20 20 20 20 20 20 23 21 20 20
23 22 21 21 28 21 20 21 22 18 16 15 15 14 16 14 11 12 13 11 9 9 12 13 15 16 16 25 29 32 32 31 31 30 29 29 28 26 24 22 21 21 21 21 21 22 22 22 21 21 20 20 20 21 20 19 19 19 18 19 19 20 21 20 18 18 18 17 16 16 16 16 15 15 17 17 17 17 18 18 18 18 20 20 20 20 20 20 20 20 19 19 18 19 20 19 19
22 19 22 29 30 27 20 17 16 15 13 13 15 13 10 11 11 16 13 14 11 10 9 11 14 15 15 22 27 30 31 30 29 29 29 28 27 26 25 23 22 21 20 19 20 21 22 22 21 20 19 18 19 20 19 19 18 18 17 18 18 19 19 18 17 16 17 17 16 16 16 16 14 16 17 19 17 17 18 21 18 18 19 18 19 19 19 19 19 18 18 18 17 18 17 18 18
22 23 32 21 18 16 19 17 13 11 9 11 10 9 11 10 9 9 8 14 12 10 11 11 12 14 17 21 23 29 29 28 27 27 27 27 27 26 25 23 22 21 21 20 20 20 21 21 21 20 19 18 18 19 18 19 18 19 19 17 16 17 17 16 15 15 16 15 15 14 13 14 15 16 17 17 16 17 17 17 17 17 18 18 18 18 18 18 18 17 17 17 16 16 16 16 16
29 27 25 27 17 19 20 19 16 13 10 10 11 12 9 13 10 10 9 12 14 10 10 11 12 13 15 20 24 29 30 28 26 26 27 26 26 25 24 23 22 21 20 20 19 20 20 21 21 19 19 18 18 18 18 17 17 17 17 15 15 15 15 13 13 13 13 13 13 12 10 12 13 15 14 15 15 15 15 15 16 16 16 16 16 16 16 17 16 15 15 15 15 15 15 15 15
22 21 19 21 18 21 19 21 20 14 11 10 9 8 11 12 8 9 9 9 13 12 13 17 17 17 18 21 26 28 30 29 28 26 25 25 25 24 23 22 22 21 21 20 20 19 19 21 20 20 18 17 17 17 17 17 16 15 15 13 12 12 12 10 9 10 10 8 8 10 7 8 10 10 11 11 11 12 13 13 12 14 13 12 12 13 14 14 14 14 14 14 14 14 14 14 15
22 22 20 19 21 17 15 15 20 20 14 11 9 10 14 13 8 8 7 11 18 17 15 19 20 22 22 24 25 26 28 30 30 28 26 25 24 23 22 22 22 21 20 19 19 19 19 20 20 20 18 17 16 16 16 16 15 14 14 12 11 10 9 7 7 6 6 5 6 6 6 7 6 6 7 8 9 10 11 10 10 11 11 11 12 12 12 13 13 13 13 13 13 13 13 13 13